Regional Weather Roundup
Issued by NWS Charleston, WV

Home | Current Version | Previous Version | Text Only | Print | Product List | Glossary On
Versions: 1 2 3 4 5 6 7 8 9 10 11 12 13 14 15 16 17 18 19 20 21 22 23 24 25 26 27 28 29 30 31 32 33 34 35 36 37 38 39 40 41 42 43 44 45 46 47 48 49 50
822
ASUS41 KRLX 170610
RWRRLX
West Virginia Regional Weather Roundup
National Weather Service Charleston WV
200 AM EDT TUE OCT 17 2017

Note: "fair" indicates few or no clouds below 12,000 feet with no
significant weather and/or obstructions to visibility.

WVZ003-170700-
Northern Panhandle of West Virginia

CITY           SKY/WX    TMP DP  RH WIND       PRES   REMARKS
WHEELING       CLEAR     41  34  76 S3        30.30S
$$

WVZ009-170700-
Northwest West Virginia

CITY           SKY/WX    TMP DP  RH WIND       PRES   REMARKS
PARKERSBURG    CLEAR     40  37  89 CALM      30.34R
$$

WVZ006-170700-
Western West Virginia

CITY           SKY/WX    TMP DP  RH WIND       PRES   REMARKS
HUNTINGTON     CLEAR     42  40  92 CALM      30.32R
$$

WVZ015-170700-
West Central West Virginia

CITY           SKY/WX    TMP DP  RH WIND       PRES   REMARKS
CHARLESTON     PTCLDY    40  38  93 CALM      30.31S FOG
$$

WVZ022-031-170700-
North Central West Virginia

CITY           SKY/WX    TMP DP  RH WIND       PRES   REMARKS
CLARKSBURG     CLEAR     38  36  92 CALM      30.30S FOG
MORGANTOWN     CLEAR     40  37  89 CALM      30.31S
$$

WVZ025-035-042-045-170700-
Southern West Virginia

CITY           SKY/WX    TMP DP  RH WIND       PRES   REMARKS
BECKLEY        CLEAR     39  35  86 SE3       30.30S
LOGAN            N/A     43  41  93 CALM      30.31R
BLUEFIELD      CLEAR     39  33  79 W5        30.30F
LEWISBURG      CLEAR     37  35  92 CALM      30.30S
$$

WVZ047-170700-
Northern Mountains of West Virginia

CITY           SKY/WX    TMP DP  RH WIND       PRES   REMARKS
ELKINS         FOG       37  35  92 CALM      30.31R VSB 1/2
$$

WVZ052-170700-
Eastern Panhandle of West Virginia

CITY           SKY/WX    TMP DP  RH WIND       PRES   REMARKS
MARTINSBURG    CLEAR     46  33  60 NW5       30.28S
PETERSBURG     CLEAR     36  35  98 CALM      30.31S
$$




USA.gov is the U.S. government's official web portal to all federal, state and local government web resources and services.